This is the latest recevied weather packets stored in our database for station/object KD1KE. If no packets are shown the sender has not sent any weather packets the latest 10 day(s).
| Time | Temp. | Humidity | Pressure | Rain* | Wind** | Luminosity | Snow |
|---|---|---|---|---|---|---|---|
| 1777218865 | 15.56° C | 46% | 1019.2 hPa | 0 mm | - | - | - |
| 1777218715 | 15.56° C | 46% | 1019.2 hPa | 0 mm | - | - | - |
| 1777218325 | 15° C | 46% | 1019.3 hPa | 0 mm | - | - | - |
| 1777218055 | 15° C | 47% | 1019.2 hPa | 0 mm | - | - | - |
| 1777217785 | 15° C | 46% | 1019.2 hPa | 0 mm | - | - | - |
| 1777217395 | 15° C | 48% | 1019.4 hPa | 0 mm | - | - | - |
| 1777217243 | 15° C | 47% | 1019.3 hPa | 0 mm | - | - | - |
| 1777216735 | 14.44° C | 48% | 1019.3 hPa | 0 mm | - | - | - |
| 1777216163 | 14.44° C | 48% | 1019.3 hPa | 0 mm | - | - | - |
| 1777216075 | 15° C | 47% | 1019.3 hPa | 0 mm | - | - | - |
| 1777215624 | 14.44° C | 48% | 1019.2 hPa | 0 mm | - | - | - |
| 1777215414 | 14.44° C | 47% | 1019.3 hPa | 0 mm | - | - | - |
| 1777215086 | 14.44° C | 50% | 1019.3 hPa | 0 mm | - | - | - |
| 1777214756 | 14.44° C | 49% | 1019.2 hPa | 0 mm | - | - | - |
| 1777214544 | 13.89° C | 48% | 1019.3 hPa | 0 mm | - | - | - |
| 1777214095 | 14.44° C | 47% | 1019.3 hPa | 0 mm | - | - | - |
| 1777214005 | 14.44° C | 48% | 1019.3 hPa | 0 mm | - | - | - |
| 1777213465 | 13.89° C | 48% | 1019.4 hPa | 0 mm | - | - | - |
| 1777213434 | 13.89° C | 48% | 1019.4 hPa | 0 mm | - | - | - |
| 1777212923 | 14.44° C | 51% | 1019.3 hPa | 0 mm | - | - | - |
| 1777212774 | 13.89° C | 49% | 1019.3 hPa | 0 mm | - | - | - |
| 1777212386 | 13.89° C | 52% | 1019.3 hPa | 0 mm | - | - | - |
| 1777212114 | 13.33° C | 51% | 1019.3 hPa | 0 mm | - | - | - |
| 1777211843 | 13.33° C | 52% | 1019.3 hPa | 0 mm | - | - | - |
| 1777211454 | 13.33° C | 53% | 1019.3 hPa | 0 mm | - | - | - |
* Rain latest hour (hover to see other rain measurements)
** Current wind speed in m/s (hover to see current wind gust speed)